Date_and_time,latitude,longitude,wind_speed,RelWindDirFrom,WindDirFrom,air_pressure,air_temperature,relative_humidity,Temp,platform_speed_wrt_ground,air_pressure_at_mean_sea_level,platform_orientation
2019-12-31 00:00,50.6304583333333,-96.9807733333333,9.0,12.2,325,985.50,-11.6,78,0.74,0.0,1014.43,360.0
2019-12-31 00:10,50.63046,-96.9807683333333,9.3,12.8,321,985.64,-11.8,78,0.75,0.0,1014.59,360.0
2019-12-31 00:20,50.63046,-96.980765,9.6,12.9,320,985.72,-11.9,78,0.75,0.0,1014.70,360.0
2019-12-31 00:30,50.6304583333333,-96.980765,11.5,16.8,323,985.52,-12.0,78,0.75,0.0,1014.51,360.0
2019-12-31 00:40,50.6304583333333,-96.9807666666667,11.9,16.1,324,985.52,-12.2,79,0.75,0.0,1014.53,360.0
2019-12-31 00:50,50.63044,-96.9807583333333,11.0,17.8,320,985.63,-12.4,79,0.76,0.0,1014.66,360.0
2019-12-31 01:00,50.630455,-96.9807733333333,10.2,16.0,317,985.69,-12.6,80,0.76,0.0,1014.75,299.2
2019-12-31 01:10,50.63046,-96.9807516666667,10.0,15.6,317,985.82,-12.9,80,0.76,0.0,1014.91,299.2
2019-12-31 01:20,50.6304533333333,-96.980745,10.8,14.9,315,985.83,-13.0,81,0.76,0.0,1014.93,299.2
2019-12-31 01:30,50.630455,-96.9807533333333,11.1,14.7,317,985.83,-13.2,82,0.76,0.0,1014.96,299.2
2019-12-31 01:40,50.6304616666667,-96.980765,10.1,15.1,319,985.86,-13.4,82,0.74,0.0,1015.01,299.2
2019-12-31 01:50,50.6304616666667,-96.98076,10.3,14.2,319,985.74,-13.6,83,0.74,0.0,1014.91,299.2
2019-12-31 02:00,50.6304583333333,-96.9807633333333,10.1,15.0,316,985.74,-13.7,83,0.75,0.0,1014.92,311.7
2019-12-31 02:10,50.630465,-96.9808166666667,9.4,13.9,312,985.75,-13.8,84,0.74,0.0,1014.94,311.7
2019-12-31 02:20,50.6304633333333,-96.9807633333333,9.1,12.4,309,985.79,-13.9,84,0.74,0.0,1015.00,311.7
2019-12-31 02:30,50.6304616666667,-96.9807533333333,10.2,14.9,311,985.78,-14.0,84,0.74,0.0,1015.00,311.7
2019-12-31 02:40,50.6304516666667,-96.9807583333333,10.0,14.9,310,985.79,-14.1,84,0.74,0.0,1015.03,311.7
2019-12-31 02:50,50.6304683333333,-96.9807466666667,9.7,13.0,310,985.85,-14.3,84,0.74,0.0,1015.12,311.7
2019-12-31 03:00,50.6304483333333,-96.980755,9.1,15.5,312,985.91,-14.5,84,0.74,0.0,1015.21,143.4
2019-12-31 03:10,50.6304516666667,-96.980765,8.6,12.7,310,985.94,-14.6,85,0.74,0.0,1015.25,143.4
2019-12-31 03:20,50.6304533333333,-96.9807683333333,8.8,13.3,309,985.90,-14.8,85,0.74,0.0,1015.23,143.4
2019-12-31 03:30,50.6304533333333,-96.9807716666667,10.0,14.1,309,985.78,-14.9,85,0.74,0.0,1015.13,143.4
2019-12-31 03:40,50.630455,-96.9807683333333,9.1,13.1,312,985.75,-14.9,85,0.74,0.0,1015.10,143.4
2019-12-31 03:50,50.6304566666667,-96.9807716666667,8.8,12.3,315,985.78,-15.0,85,0.74,0.0,1015.14,143.4
2019-12-31 04:00,50.6304583333333,-96.9807666666667,8.6,12.9,319,985.73,-15.0,86,0.74,0.0,1015.10,12.6
2019-12-31 04:10,50.6304566666667,-96.980765,8.6,11.7,319,985.72,-14.9,86,0.74,0.0,1015.09,12.6
2019-12-31 04:20,50.6304566666667,-96.980765,9.3,12.0,324,985.61,-14.9,86,0.74,0.0,1014.98,12.6
2019-12-31 04:30,50.6304566666667,-96.9807633333333,9.6,13.3,324,985.62,-14.9,86,0.73,0.0,1015.00,12.6
2019-12-31 04:40,50.6304583333333,-96.9807633333333,10.8,15.8,321,985.45,-14.9,86,0.73,0.0,1014.84,12.6
2019-12-31 04:50,50.6304583333333,-96.9807633333333,9.4,14.9,322,985.53,-15.0,86,0.73,0.0,1014.93,12.6
2019-12-31 05:00,50.6304583333333,-96.980755,10.3,14.0,317,985.49,-15.0,86,0.72,0.0,1014.90,90.0
2019-12-31 05:10,50.6304533333333,-96.9807566666667,8.2,12.1,321,985.44,-15.0,87,0.72,0.0,1014.86,90.0
2019-12-31 05:20,50.6304516666667,-96.9807516666667,9.0,13.1,319,985.29,-15.0,87,0.71,0.0,1014.71,90.0
2019-12-31 05:30,50.6304533333333,-96.9807566666667,6.1,9.2,332,985.45,-15.1,86,0.71,0.0,1014.88,90.0
2019-12-31 05:40,50.63046,-96.980765,6.6,10.2,323,985.38,-15.1,87,0.71,0.0,1014.81,90.0
2019-12-31 05:50,50.6304633333333,-96.9807666666667,7.3,10.5,317,985.30,-15.2,87,0.71,0.0,1014.74,90.0
2019-12-31 06:00,50.6304633333333,-96.9807683333333,8.0,11.1,320,985.21,-15.3,87,0.71,0.0,1014.64,360.0
2019-12-31 06:10,50.630465,-96.9807683333333,8.0,10.9,320,985.14,-15.4,87,0.72,0.0,1014.58,360.0
2019-12-31 06:20,50.630465,-96.9807683333333,8.2,11.2,322,985.17,-15.4,87,0.72,0.0,1014.61,360.0
2019-12-31 06:30,50.630465,-96.98077,8.5,11.3,321,985.13,-15.5,87,0.71,0.0,1014.58,360.0
2019-12-31 06:40,50.630465,-96.98077,8.5,11.9,324,985.03,-15.5,86,0.70,0.0,1014.48,360.0
2019-12-31 06:50,50.6304833333333,-96.9807766666667,8.3,11.5,321,985.06,-15.6,87,0.69,0.0,1014.51,360.0
2019-12-31 07:00,50.6304783333333,-96.980765,6.8,11.1,317,985.02,-15.7,87,0.68,0.0,1014.47,360.0
2019-12-31 07:10,50.6304766666667,-96.9807666666667,7.5,10.9,316,984.92,-15.7,87,0.68,0.0,1014.37,360.0
2019-12-31 07:20,50.6304733333333,-96.9807666666667,7.9,11.7,316,984.80,-15.7,87,0.67,0.0,1014.26,360.0
2019-12-31 07:30,50.6304716666667,-96.980765,8.3,11.4,314,984.76,-15.8,87,0.67,0.0,1014.22,360.0
2019-12-31 07:40,50.630465,-96.9807633333333,7.4,11.0,307,984.87,-15.8,86,0.66,0.0,1014.34,360.0
2019-12-31 07:50,50.6304666666667,-96.98077,7.3,10.1,311,984.93,-15.8,86,0.65,0.0,1014.41,360.0
2019-12-31 08:00,50.6304666666667,-96.98077,6.6,10.4,315,985.06,-15.8,86,0.64,0.0,1014.55,345.5
2019-12-31 08:10,50.63047,-96.98077,5.9,9.1,323,985.16,-15.8,86,0.64,0.0,1014.65,345.5
2019-12-31 08:20,50.630465,-96.9807683333333,5.9,7.9,321,985.15,-15.7,86,0.64,0.0,1014.64,345.5
2019-12-31 08:30,50.6304583333333,-96.9807633333333,6.6,9.6,318,985.06,-15.7,86,0.64,0.0,1014.56,345.5
2019-12-31 08:40,50.6304633333333,-96.9807683333333,6.3,9.1,321,985.09,-15.7,86,0.64,0.0,1014.59,345.5
2019-12-31 08:50,50.6304633333333,-96.9807716666667,7.0,9.7,321,985.17,-15.6,86,0.63,0.0,1014.67,345.5
2019-12-31 09:00,50.6304633333333,-96.9807666666667,6.9,10.4,326,985.25,-15.5,86,0.63,0.0,1014.75,0.0
2019-12-31 09:10,50.63047,-96.98076,7.5,10.9,322,985.17,-15.4,86,0.63,0.0,1014.66,0.0
2019-12-31 09:20,50.6304666666667,-96.980765,8.2,11.1,320,985.09,-15.3,87,0.63,0.0,1014.57,0.0
2019-12-31 09:30,50.6304683333333,-96.98077,8.3,11.5,321,985.12,-15.3,87,0.62,0.0,1014.60,0.0
2019-12-31 09:40,50.6304683333333,-96.9807666666667,7.6,11.7,319,985.19,-15.3,87,0.62,0.0,1014.68,0.0
2019-12-31 09:50,50.6304666666667,-96.9807666666667,7.5,10.1,316,985.17,-15.3,87,0.62,0.0,1014.65,0.0
2019-12-31 10:00,50.6304666666667,-96.9807683333333,6.5,10.0,312,985.38,-15.3,87,0.61,0.0,1014.88,360.0
2019-12-31 10:10,50.630455,-96.98078,7.5,11.1,312,985.38,-15.4,87,0.61,0.0,1014.88,360.0
2019-12-31 10:20,50.63046,-96.9807683333333,7.2,10.4,317,985.43,-15.3,87,0.61,0.0,1014.92,360.0
2019-12-31 10:30,50.6304583333333,-96.9807683333333,7.4,11.1,315,985.44,-15.3,87,0.61,0.0,1014.93,360.0
2019-12-31 10:40,50.63046,-96.980765,6.0,9.1,314,985.47,-15.4,88,0.60,0.0,1014.96,360.0
2019-12-31 10:50,50.63046,-96.9807616666667,6.3,8.6,313,985.40,-15.4,87,0.60,0.0,1014.89,360.0
2019-12-31 11:00,50.6304583333333,-96.9807633333333,5.2,7.8,312,985.32,-15.5,87,0.60,0.0,1014.80,360.0
2019-12-31 11:10,50.6304583333333,-96.9807633333333,3.9,6.2,325,985.18,-15.4,87,0.60,0.0,1014.65,360.0
2019-12-31 11:20,50.6304583333333,-96.980765,4.2,5.9,327,984.80,-15.4,87,0.59,0.0,1014.26,360.0
2019-12-31 11:30,50.63046,-96.9807666666667,4.5,6.5,325,984.61,-15.5,87,0.59,0.0,1014.07,360.0
2019-12-31 11:40,50.63046,-96.9807666666667,5.1,6.9,320,984.49,-15.6,87,0.59,0.0,1013.95,360.0
2019-12-31 11:50,50.630445,-96.9807533333333,4.6,6.9,318,984.39,-15.7,87,0.59,0.0,1013.85,360.0
2019-12-31 12:00,50.630455,-96.9807583333333,4.0,5.6,320,984.29,-15.7,88,0.59,0.0,1013.75,360.0
2019-12-31 12:10,50.6304583333333,-96.9807716666667,3.8,5.9,316,984.17,-15.7,88,0.58,0.0,1013.63,360.0
2019-12-31 12:20,50.630455,-96.98077,5.2,7.1,305,984.05,-15.8,88,0.58,0.0,1013.51,360.0
2019-12-31 12:30,50.6304533333333,-96.9807716666667,5.4,7.3,293,983.90,-15.9,87,0.57,0.0,1013.36,360.0
2019-12-31 12:40,50.630455,-96.9807683333333,4.5,6.2,303,983.77,-15.9,87,0.57,0.0,1013.23,360.0
2019-12-31 12:50,50.630455,-96.9807666666667,3.0,5.8,313,983.76,-15.9,87,0.56,0.0,1013.22,360.0
2019-12-31 13:00,50.630455,-96.9807683333333,2.9,4.2,311,983.73,-15.9,87,0.56,0.0,1013.19,360.0
2019-12-31 13:10,50.6304533333333,-96.9807666666667,2.9,3.8,315,983.58,-15.9,87,0.56,0.0,1013.03,360.0
2019-12-31 13:20,50.630485,-96.9807666666667,3.4,4.5,302,983.57,-16.0,87,0.56,0.0,1013.03,360.0
2019-12-31 13:30,50.6304666666667,-96.98077,2.7,4.3,292,983.66,-16.1,87,0.56,0.0,1013.14,360.0
2019-12-31 13:40,50.63046,-96.9807633333333,2.4,3.5,286,983.69,-16.3,87,0.56,0.0,1013.19,360.0
2019-12-31 13:50,50.63045,-96.9807583333333,2.4,4.0,273,983.60,-16.5,87,0.55,0.0,1013.11,360.0
2019-12-31 14:00,50.63045,-96.98076,2.3,3.5,266,983.41,-16.8,87,0.55,0.0,1012.93,131.7
2019-12-31 14:10,50.63045,-96.9807616666667,2.0,3.5,277,983.26,-16.9,87,0.55,0.0,1012.78,131.7
2019-12-31 14:20,50.6304516666667,-96.9807616666667,3.2,4.4,277,983.21,-16.8,88,0.54,0.0,1012.73,131.7
2019-12-31 14:30,50.6304533333333,-96.9807633333333,3.1,4.8,278,983.30,-16.8,87,0.54,0.0,1012.83,131.7
2019-12-31 14:40,50.63046,-96.98076,3.1,4.2,280,983.27,-16.8,87,0.53,0.0,1012.80,131.7
2019-12-31 14:50,50.6304783333333,-96.980795,3.5,4.3,278,983.14,-16.6,87,0.53,0.0,1012.65,131.7
2019-12-31 15:00,50.6304466666667,-96.98078,3.0,3.8,277,983.18,-16.3,86,0.53,0.0,1012.67,253.2
2019-12-31 15:10,50.6304483333333,-96.9807716666667,2.7,4.1,271,983.12,-16.3,85,0.54,0.0,1012.61,253.2
2019-12-31 15:20,50.63045,-96.9807733333333,2.4,3.2,246,983.07,-16.2,83,0.56,0.0,1012.57,253.2
2019-12-31 15:30,50.6304516666667,-96.9807733333333,2.3,2.9,247,982.92,-16.0,84,0.56,0.0,1012.41,253.2
2019-12-31 15:40,50.6304433333333,-96.98081,2.9,3.8,247,982.82,-15.7,84,0.56,0.0,1012.30,253.2
2019-12-31 15:50,50.6304466666667,-96.9807633333333,2.7,3.8,248,982.82,-15.5,83,0.56,0.0,1012.30,253.2
2019-12-31 16:00,50.630445,-96.9807583333333,1.9,3.5,237,982.56,-15.3,82,0.55,0.0,1012.03,165.5
2019-12-31 16:10,50.6304466666667,-96.980745,2.3,3.2,225,982.55,-15.1,80,0.54,0.0,1012.00,165.5
2019-12-31 16:20,50.630445,-96.98076,2.8,3.4,217,982.44,-15.5,82,0.53,0.0,1011.91,165.5
2019-12-31 16:30,50.630445,-96.980765,2.7,3.2,213,982.32,-15.6,83,0.53,0.0,1011.80,165.5
2019-12-31 16:40,50.6304483333333,-96.98077,2.6,3.2,210,982.24,-15.3,82,0.54,0.0,1011.68,165.5
2019-12-31 16:50,50.63045,-96.9807683333333,3.5,4.2,211,982.09,-15.0,82,0.54,0.0,1011.50,165.5
2019-12-31 17:00,50.6304216666667,-96.9807883333333,3.8,4.5,207,981.91,-15.6,86,0.55,0.0,1011.35,210.8
2019-12-31 17:10,50.6304433333333,-96.9807766666667,3.7,5.3,225,981.78,-15.5,88,0.54,0.0,1011.20,210.8
2019-12-31 17:20,50.6304516666667,-96.98077,4.0,5.3,224,981.63,-15.4,88,0.55,0.0,1011.03,210.8
2019-12-31 17:30,50.6304783333333,-96.9807433333333,3.6,4.7,217,981.55,-15.1,88,0.56,0.0,1010.91,210.8
2019-12-31 17:40,50.630455,-96.9807633333333,3.0,4.6,201,981.44,-14.9,88,0.56,0.0,1010.77,210.8
2019-12-31 17:50,50.630445,-96.9807616666667,3.5,4.9,175,981.28,-14.6,88,0.56,0.0,1010.58,210.8
2019-12-31 18:00,50.6304483333333,-96.98076,4.7,5.8,179,981.15,-14.4,87,0.56,0.0,1010.42,90.0
2019-12-31 18:10,50.63045,-96.9807616666667,4.8,6.8,189,981.01,-14.2,87,0.57,0.0,1010.29,90.0
2019-12-31 18:20,50.6304516666667,-96.9807633333333,5.6,6.5,188,980.80,-14.0,87,0.57,0.0,1010.07,90.0
2019-12-31 18:30,50.6304516666667,-96.9807666666667,5.0,6.5,183,980.49,-13.9,86,0.58,0.0,1009.73,90.0
2019-12-31 18:40,50.63045,-96.9807683333333,6.1,8.0,187,980.41,-13.6,87,0.58,0.0,1009.61,90.0
2019-12-31 18:50,50.6304483333333,-96.9807683333333,6.6,9.2,188,980.20,-13.4,87,0.58,0.0,1009.42,90.0
2019-12-31 19:00,50.6304466666667,-96.9807683333333,7.3,9.0,179,979.85,-13.4,86,0.60,0.0,1009.05,347.4
2019-12-31 19:10,50.6304416666667,-96.980775,6.7,8.0,177,979.62,-13.2,85,0.60,0.0,1008.79,347.4
2019-12-31 19:20,50.6304433333333,-96.98077,6.6,7.9,186,979.32,-12.7,83,0.62,0.0,1008.45,347.4
2019-12-31 19:30,50.6304433333333,-96.98077,8.1,9.7,180,979.01,-12.4,81,0.63,0.0,1008.09,347.4
2019-12-31 19:40,50.6304433333333,-96.9807716666667,7.3,9.1,181,978.80,-12.3,82,0.64,0.0,1007.85,347.4
2019-12-31 19:50,50.6304433333333,-96.9807733333333,7.2,9.3,164,978.58,-12.3,82,0.64,0.0,1007.62,347.4
2019-12-31 20:00,50.630445,-96.9807733333333,9.0,10.6,155,978.41,-12.6,84,0.64,0.0,1007.45,37.7
2019-12-31 20:10,50.6304416666667,-96.980835,8.9,10.8,159,978.13,-12.4,83,0.64,0.0,1007.14,37.7
2019-12-31 20:20,50.6304483333333,-96.9807733333333,10.0,11.4,152,977.97,-12.4,83,0.64,0.0,1006.97,37.7
2019-12-31 20:30,50.6304483333333,-96.98078,9.3,10.8,154,977.81,-12.8,85,0.64,0.0,1006.81,37.7
2019-12-31 20:40,50.6304483333333,-96.9807816666667,8.6,10.8,156,977.74,-12.5,84,0.64,0.0,1006.71,37.7
2019-12-31 20:50,50.6304483333333,-96.9807816666667,9.2,11.2,155,977.61,-12.2,84,0.64,0.0,1006.56,37.7
2019-12-31 21:00,50.63045,-96.98078,9.6,11.7,157,977.45,-12.1,83,0.64,0.0,1006.37,287.7
2019-12-31 21:10,50.6304533333333,-96.9807766666667,9.6,11.3,162,977.48,-12.1,83,0.64,0.0,1006.37,287.7
2019-12-31 21:20,50.63045,-96.9807783333333,9.8,12.0,157,977.23,-12.5,85,0.64,0.0,1006.13,287.7
2019-12-31 21:30,50.6304516666667,-96.9807783333333,10.6,12.4,156,976.99,-12.8,86,0.63,0.0,1005.89,287.7
2019-12-31 21:40,50.63045,-96.9807766666667,10.4,12.9,162,977.04,-12.6,85,0.64,0.0,1005.94,287.7
2019-12-31 21:50,50.6304483333333,-96.9807733333333,10.3,12.2,163,976.95,-12.4,84,0.64,0.0,1005.84,287.7
2019-12-31 22:00,50.6304466666667,-96.9807733333333,10.9,13.3,153,976.64,-12.5,84,0.63,0.0,1005.51,270.0
2019-12-31 22:10,50.6304383333333,-96.9807466666667,12.5,14.7,150,976.33,-12.7,85,0.63,0.0,1005.21,270.0
2019-12-31 22:20,50.6304366666667,-96.9807683333333,13.8,17.5,141,975.76,-12.5,85,0.63,0.0,1004.63,270.0
2019-12-31 22:30,50.6304433333333,-96.9807683333333,14.0,16.9,138,975.27,-12.9,86,0.63,0.0,1004.14,270.0
2019-12-31 22:40,50.6304466666667,-96.980765,12.5,15.1,159,975.58,-13.2,86,0.63,0.0,1004.46,270.0
2019-12-31 22:50,50.6304466666667,-96.9807666666667,12.5,15.3,154,975.21,-13.1,86,0.63,0.0,1004.07,270.0
2019-12-31 23:00,50.6304483333333,-96.9807666666667,13.2,16.7,159,975.09,-13.1,85,0.64,0.0,1003.94,12.6
2019-12-31 23:10,50.63045,-96.980765,14.7,17.6,156,974.70,-13.1,85,0.64,0.0,1003.56,12.6
2019-12-31 23:20,50.6304566666667,-96.9807833333333,14.5,17.2,155,974.43,-13.2,85,0.64,0.0,1003.30,12.6
2019-12-31 23:30,50.6304616666667,-96.9807666666667,14.0,17.8,156,974.30,-13.1,86,0.64,0.0,1003.16,12.6
2019-12-31 23:40,50.6304616666667,-96.980775,14.3,17.5,161,974.33,-13.0,86,0.64,0.0,1003.17,12.6
